User: anonymous   Login
Location: Unspecified
(0.0000°N, 0.0000°E)
Time: 23:07:07
(UTC+02:00)
Language:

ATLAS V CENTAUR R/B - Orbit

View from above orbital plane
View from above orbital plane
View from above satellite
View from above satellite

Ground track
Ground track

The orbit data is extracted from the following two-line orbital elements,

1 27500U 02038B   18172.46337834 +.00002750 +00000-0 +60720-3 0  9996
2 27500 017.9167 213.4292 6716159 333.4504 004.0485 03.02094531137028
Epoch (UTC): 21 June 2018 11:07:15
Eccentricity: 0.6716159
inclination: 17.9167°
perigee height: 259 km
apogee height: 27410 km
right ascension of ascending node: 213.4292°
argument of perigee: 333.4504°
revolutions per day: 3.02094531
mean anomaly at epoch: 4.0485°
orbit number at epoch: 13702

The dashed part of the orbit path shows where the satellite is in the earth's shadow,  

DLR